Zurück zum Katalog

COSMOS 1275 DEB

AktivPO
NORAD 42095·DEBRIS·🇷🇺 Russia

Gestartet Jun 4, 1981 von Plesetsk Cosmodrome

Loading…

Nächste Überflüge (nächste 24 Stunden)

TLE

AktuellSource: Space-Track

Epoche: Sep 13, 2026, 08:01 UTC

1 42095U 81053PF  26256.33434353  .00000954  00000-0  86681-3 0  9996
2 42095  82.7511 111.7195 0129795 324.2572  34.9947 13.78929563641740

Verfolge COSMOS 1275 DEB in Echtzeit mit AllMySat

Download on the App Store